TimeCDT,TemperatureF,Dew PointF,Humidity,Sea Level PressureIn,VisibilityMPH,Wind Direction,Wind SpeedMPH,Gust SpeedMPH,PrecipitationIn,Events,Conditions,WindDirDegrees,DateUTC
12:17 AM,59.0,32.0,36,30.01,10.0,SE,15.0,24.2,N/A,,Clear,140,2013-04-21 05:17:00
12:34 AM,59.0,32.0,36,30.02,10.0,SE,16.1,21.9,N/A,,Clear,140,2013-04-21 05:34:00
1:14 AM,57.2,33.8,41,30.02,10.0,SSE,23.0,27.6,N/A,,Clear,150,2013-04-21 06:14:00
1:34 AM,57.2,35.6,44,30.02,10.0,SSE,19.6,29.9,N/A,,Clear,150,2013-04-21 06:34:00
1:54 AM,57.2,37.4,48,30.03,10.0,SSE,16.1,27.6,N/A,,Clear,150,2013-04-21 06:54:00
2:18 AM,57.2,39.2,51,30.03,10.0,SSE,19.6,27.6,N/A,,Clear,150,2013-04-21 07:18:00
2:34 AM,57.2,39.2,51,30.02,10.0,SSE,18.4,24.2,N/A,,Clear,150,2013-04-21 07:34:00
2:54 AM,55.4,41.0,58,30.03,10.0,SE,16.1,26.5,N/A,,Clear,140,2013-04-21 07:54:00
3:14 AM,55.4,41.0,58,30.03,10.0,SSE,16.1,24.2,N/A,,Clear,150,2013-04-21 08:14:00
3:34 AM,55.4,42.8,63,30.03,10.0,SSE,13.8,24.2,N/A,,Clear,150,2013-04-21 08:34:00
3:54 AM,55.4,42.8,63,30.03,10.0,SE,17.3,24.2,N/A,,Clear,140,2013-04-21 08:54:00
4:16 AM,53.6,42.8,67,30.03,10.0,SSE,13.8,23.0,N/A,,Clear,150,2013-04-21 09:16:00
4:34 AM,53.6,42.8,67,30.03,10.0,SSE,13.8,19.6,N/A,,Clear,150,2013-04-21 09:34:00
4:54 AM,53.6,44.6,72,30.03,10.0,SSE,15.0,23.0,N/A,,Clear,150,2013-04-21 09:54:00
5:14 AM,53.6,44.6,72,30.04,10.0,SSE,11.5,20.7,N/A,,Clear,160,2013-04-21 10:14:00
5:35 AM,53.6,44.6,72,30.04,10.0,SSE,15.0,21.9,N/A,,Clear,160,2013-04-21 10:35:00
5:54 AM,53.6,44.6,72,30.04,10.0,SSE,15.0,23.0,N/A,,Clear,160,2013-04-21 10:54:00
6:18 AM,53.6,44.6,72,30.05,10.0,SSE,11.5,19.6,N/A,,Clear,160,2013-04-21 11:18:00
6:34 AM,53.6,44.6,72,30.05,10.0,SSE,12.7,19.6,N/A,,Clear,160,2013-04-21 11:34:00
6:54 AM,51.8,44.6,76,30.06,10.0,SSE,15.0,19.6,N/A,,Clear,160,2013-04-21 11:54:00
7:19 AM,51.8,44.6,76,30.07,10.0,SSE,15.0,20.7,N/A,,Clear,160,2013-04-21 12:19:00
7:34 AM,51.8,44.6,76,30.08,10.0,SSE,11.5,18.4,N/A,,Clear,160,2013-04-21 12:34:00
7:54 AM,53.6,44.6,72,30.09,10.0,SSE,11.5,19.6,N/A,,Clear,160,2013-04-21 12:54:00
8:14 AM,53.6,46.4,77,30.10,10.0,SSE,13.8,19.6,N/A,,Clear,150,2013-04-21 13:14:00
8:34 AM,55.4,46.4,72,30.11,10.0,SE,10.4,17.3,N/A,,Clear,140,2013-04-21 13:34:00
8:54 AM,57.2,46.4,67,30.12,10.0,SE,10.4,-,N/A,,Clear,140,2013-04-21 13:54:00
9:14 AM,59.0,46.4,63,30.13,10.0,SE,12.7,18.4,N/A,,Clear,140,2013-04-21 14:14:00
9:34 AM,60.8,46.4,59,30.14,10.0,SSE,11.5,18.4,N/A,,Scattered Clouds,160,2013-04-21 14:34:00
9:54 AM,62.6,46.4,55,30.15,10.0,SSE,16.1,20.7,N/A,,Scattered Clouds,160,2013-04-21 14:54:00
10:15 AM,62.6,48.2,59,30.14,10.0,SSE,12.7,19.6,N/A,,Mostly Cloudy,160,2013-04-21 15:15:00
10:34 AM,64.4,48.2,56,30.14,10.0,SSE,18.4,25.3,N/A,,Overcast,160,2013-04-21 15:34:00
10:54 AM,64.4,48.2,56,30.14,10.0,South,15.0,23.0,N/A,,Overcast,170,2013-04-21 15:54:00
11:14 AM,64.4,48.2,56,30.13,10.0,SSE,12.7,23.0,N/A,,Overcast,160,2013-04-21 16:14:00
11:34 AM,66.2,48.2,52,30.13,10.0,South,18.4,23.0,N/A,,Overcast,180,2013-04-21 16:34:00
11:54 AM,66.2,48.2,52,30.13,10.0,South,18.4,24.2,N/A,,Mostly Cloudy,190,2013-04-21 16:54:00
12:16 PM,68.0,46.4,46,30.12,10.0,South,13.8,18.4,N/A,,Overcast,180,2013-04-21 17:16:00
12:34 PM,69.8,48.2,46,30.11,10.0,SSW,15.0,24.2,N/A,,Mostly Cloudy,200,2013-04-21 17:34:00
1:54 PM,71.6,46.4,41,30.07,10.0,South,9.2,20.7,N/A,,Clear,180,2013-04-21 18:54:00
2:14 PM,71.6,46.4,41,30.07,10.0,SSW,13.8,20.7,N/A,,Scattered Clouds,200,2013-04-21 19:14:00
2:34 PM,71.6,46.4,41,30.06,10.0,SSE,11.5,16.1,N/A,,Scattered Clouds,160,2013-04-21 19:34:00
2:54 PM,73.4,48.2,41,30.06,10.0,SSW,11.5,19.6,N/A,,Mostly Cloudy,210,2013-04-21 19:54:00
3:14 PM,73.4,46.4,38,30.05,10.0,South,10.4,16.1,N/A,,Scattered Clouds,180,2013-04-21 20:14:00
3:38 PM,73.4,48.2,41,30.04,10.0,SSW,12.7,19.6,N/A,,Mostly Cloudy,200,2013-04-21 20:38:00
3:55 PM,73.4,46.4,38,30.03,10.0,SSE,11.5,17.3,N/A,,Scattered Clouds,160,2013-04-21 20:55:00
4:14 PM,73.4,46.4,38,30.03,10.0,SSE,9.2,-,N/A,,Scattered Clouds,150,2013-04-21 21:14:00
4:34 PM,75.2,46.4,36,30.02,10.0,SSE,10.4,-,N/A,,Scattered Clouds,150,2013-04-21 21:34:00
4:57 PM,73.4,46.4,38,30.02,10.0,SSE,11.5,18.4,N/A,,Mostly Cloudy,160,2013-04-21 21:57:00
5:14 PM,73.4,46.4,38,30.02,10.0,SSE,9.2,-,N/A,,Mostly Cloudy,160,2013-04-21 22:14:00
5:34 PM,73.4,46.4,38,30.02,10.0,SSE,12.7,21.9,N/A,,Mostly Cloudy,150,2013-04-21 22:34:00
6:14 PM,73.4,46.4,38,30.01,10.0,SSE,15.0,20.7,N/A,,Scattered Clouds,150,2013-04-21 23:14:00
7:14 PM,73.4,46.4,38,30.02,10.0,SSE,9.2,-,N/A,,Clear,160,2013-04-22 00:14:00
7:34 PM,71.6,46.4,41,30.02,10.0,SSE,10.4,-,N/A,,Clear,160,2013-04-22 00:34:00
8:17 PM,69.8,48.2,46,30.03,10.0,ESE,9.2,-,N/A,,Clear,120,2013-04-22 01:17:00
8:34 PM,68.0,50.0,52,30.03,10.0,ESE,9.2,-,N/A,,Clear,120,2013-04-22 01:34:00
9:14 PM,66.2,50.0,56,30.04,10.0,SE,11.5,-,N/A,,Clear,130,2013-04-22 02:14:00
9:34 PM,66.2,50.0,56,30.04,10.0,SE,13.8,18.4,N/A,,Clear,130,2013-04-22 02:34:00
9:57 PM,66.2,50.0,56,30.05,10.0,SE,12.7,19.6,N/A,,Clear,130,2013-04-22 02:57:00
10:14 PM,64.4,50.0,59,30.05,10.0,ESE,11.5,-,N/A,,Clear,120,2013-04-22 03:14:00
10:34 PM,64.4,50.0,59,30.06,10.0,SE,15.0,-,N/A,,Clear,130,2013-04-22 03:34:00
10:54 PM,64.4,50.0,59,30.06,10.0,SE,12.7,18.4,N/A,,Clear,130,2013-04-22 03:54:00
11:14 PM,62.6,48.2,59,30.06,10.0,SE,15.0,18.4,N/A,,Clear,130,2013-04-22 04:14:00
11:34 PM,62.6,50.0,63,30.07,10.0,SE,13.8,18.4,N/A,,Clear,130,2013-04-22 04:34:00
11:54 PM,62.6,50.0,63,30.07,10.0,SE,15.0,20.7,N/A,,Clear,130,2013-04-22 04:54:00